New Roads False River Regiona, LA

10:07 PM CDT on September 18, 2019 (GMT -0500)
False River

Weather History for KHZR - August, 2019

Change the Weather History Date:

Wednesday, August 21, 2019

  Actual Average (KBTR) Record (KBTR)
Temperature  
Mean Temperature 81 °F -  
Max Temperature 89 °F 92 °F 102 °F (1921)
Min Temperature 73 °F 72 °F 63 °F (1940)
Cooling Degree Days 16    
Growing Degree Days 31 (Base 50)    
Moisture  
Dew Point 74 °F    
Average Humidity 90    
Maximum Humidity 100    
Minimum Humidity 62    
Precipitation  
Precipitation 0.25 in - - ()
Sea Level Pressure  
Sea Level Pressure 30.03 in    
Wind  
Wind Speed 1 mph ()    
Max Wind Speed 10 mph    
Max Gust Speed -    
Visibility 9.3 miles    
Events Rain , Thunderstorm    
Averages and records for this station are not official NWS values.
T = Trace of Precipitation, MM = Missing Value Source: Averaged Metar Reports

Daily Weather History Graph

Daily Weather History Graph

Search for Another Location

Airport or City:

Astronomy

Aug. 21, 2019 Rise Set
Actual Time 6:35 AM CDT 7:41 PM CDT
Civil Twilight 6:10 AM CDT 8:06 PM CDT
Nautical Twilight 5:41 AM CDT 8:36 PM CDT
Astronomical Twilight 5:10 AM CDT 9:07 PM CDT
Moon 11:23 PM CDT (8/21) 11:49 AM CDT (8/21)
Length of Visible Light 13h 56m
Length of Day
13h 06m
Waning Gibbous, 69% of the Moon is Illuminated
Aug 21
Waning Gibbous
Aug 23
Last Quarter
Aug 30
New
Sep 5
First Quarter
Sep 13
Full

Hourly Weather History & Observations

Time (CDT) Temp. Heat Index Dew Point Humidity Pressure Visibility Wind Dir Wind Speed Gust Speed Precip Events Conditions
12:16 AM 77.0 °F - 75.2 °F 94% 30.06 in 10.0 mi Calm Calm - N/A   Mostly Cloudy
12:56 AM 77.0 °F - 75.2 °F 94% 30.06 in 10.0 mi SW 3.5 mph - N/A   Scattered Clouds
1:36 AM 75.2 °F - 75.2 °F 100% 30.05 in 10.0 mi Calm Calm - N/A   Clear
1:58 AM 75.2 °F - 75.2 °F 100% 30.04 in 10.0 mi Calm Calm - N/A   Clear
2:16 AM 75.2 °F - 75.2 °F 100% 30.04 in 10.0 mi Calm Calm - N/A   Clear
2:36 AM 75.2 °F - 75.2 °F 100% 30.03 in 10.0 mi Calm Calm - N/A   Clear
2:56 AM 75.2 °F - 75.2 °F 100% 30.03 in 10.0 mi Calm Calm - N/A   Clear
3:18 AM 75.2 °F - 75.2 °F 100% 30.03 in 10.0 mi Calm Calm - N/A   Clear
3:36 AM 75.2 °F - 75.2 °F 100% 30.02 in 10.0 mi Calm Calm - N/A   Clear
3:56 AM 75.2 °F - 75.2 °F 100% 30.02 in 7.0 mi Calm Calm - N/A   Clear
4:18 AM 75.2 °F - 75.2 °F 100% 30.00 in 5.0 mi SW 4.6 mph - N/A   Clear
4:36 AM 75.2 °F - 75.2 °F 100% 30.01 in 7.0 mi SW 3.5 mph - N/A   Clear
4:56 AM 75.2 °F - 75.2 °F 100% 30.01 in 10.0 mi Calm Calm - N/A   Clear
5:56 AM 73.4 °F - 73.4 °F 100% 30.02 in 10.0 mi Calm Calm - N/A   Clear
6:18 AM 73.4 °F - 73.4 °F 100% 30.02 in 7.0 mi Calm Calm - N/A   Clear
6:36 AM 73.4 °F - 73.4 °F 100% 30.02 in 10.0 mi Calm Calm - N/A   Clear
6:56 AM 73.4 °F - 73.4 °F 100% 30.03 in 10.0 mi Calm Calm - N/A   Clear
7:16 AM 75.2 °F - 75.2 °F 100% 30.04 in 7.0 mi Calm Calm - N/A   Clear
7:36 AM 75.2 °F - 75.2 °F 100% 30.04 in 10.0 mi Calm Calm - N/A   Clear
7:57 AM 78.8 °F - 75.2 °F 89% 30.05 in 10.0 mi Calm Calm - N/A   Clear
8:19 AM 78.8 °F - 75.2 °F 89% 30.05 in 10.0 mi Calm Calm - N/A   Clear
8:36 AM 80.6 °F 87.1 °F 77.0 °F 89% 30.05 in 10.0 mi Calm Calm - N/A   Clear
8:56 AM 80.6 °F 87.1 °F 77.0 °F 89% 30.05 in 10.0 mi Calm Calm - N/A   Clear
9:16 AM 82.4 °F 89.5 °F 75.2 °F 79% 30.06 in 10.0 mi Calm Calm - N/A   Clear
9:36 AM 82.4 °F 90.9 °F 77.0 °F 84% 30.07 in 10.0 mi Calm Calm - N/A   Scattered Clouds
9:56 AM 84.2 °F 92.3 °F 75.2 °F 74% 30.07 in 10.0 mi WNW 3.5 mph - N/A   Scattered Clouds
10:38 AM 84.2 °F 92.3 °F 75.2 °F 74% 30.08 in 10.0 mi Calm Calm - N/A   Mostly Cloudy
10:56 AM 84.2 °F 92.3 °F 75.2 °F 74% 30.08 in 10.0 mi Calm Calm - N/A   Mostly Cloudy
11:18 AM 86.0 °F 93.4 °F 73.4 °F 66% 30.08 in 10.0 mi Calm Calm - N/A   Mostly Cloudy
11:56 AM 86.0 °F 93.4 °F 73.4 °F 66% 30.07 in 10.0 mi Calm Calm - N/A   Overcast
12:18 PM 86.0 °F 93.4 °F 73.4 °F 66% 30.06 in 10.0 mi Calm Calm - N/A   Overcast
12:36 PM 87.8 °F 95.6 °F 73.4 °F 62% 30.05 in 10.0 mi Calm Calm - N/A   Overcast
1:16 PM 89.6 °F 99.8 °F 75.2 °F 62% 30.04 in 10.0 mi WSW 4.6 mph - N/A   Scattered Clouds
1:36 PM 89.6 °F 99.8 °F 75.2 °F 62% 30.03 in 10.0 mi WNW 3.5 mph - N/A   Scattered Clouds
1:56 PM 87.8 °F 95.6 °F 73.4 °F 62% 30.02 in 10.0 mi Calm Calm - N/A   Mostly Cloudy
2:16 PM 86.0 °F 93.4 °F 73.4 °F 66% 30.03 in 10.0 mi NNE 5.8 mph - N/A   Overcast
2:36 PM 80.6 °F 85.4 °F 73.4 °F 79% 30.03 in 5.0 mi East 10.4 mph - 0.02 in Rain Heavy Rain
2:56 PM 78.8 °F - 73.4 °F 83% 30.03 in 10.0 mi ENE 9.2 mph - 0.02 in   Overcast
3:16 PM 78.8 °F - 73.4 °F 83% 30.02 in 10.0 mi ENE 5.8 mph - 0.01 in Rain Light Rain
3:36 PM 78.8 °F - 73.4 °F 83% 30.02 in 10.0 mi East 3.5 mph - 0.01 in Rain , Thunderstorm Rain
3:56 PM 78.8 °F - 73.4 °F 83% 30.02 in 10.0 mi East 5.8 mph - 0.01 in Thunderstorm Thunderstorm
4:36 PM 77.0 °F - 73.4 °F 89% 30.06 in 10.0 mi NE 4.6 mph - N/A Rain , Thunderstorm Light Thunderstorms and Rain
5:56 PM 75.2 °F - 75.2 °F 100% 30.03 in 7.0 mi Calm Calm - 0.21 in Rain , Thunderstorm Light Thunderstorms and Rain
6:18 PM 75.2 °F - 75.2 °F 100% 30.03 in 1.0 mi Calm Calm - N/A Rain Light Rain
6:36 PM 75.2 °F - 73.4 °F 94% 30.01 in 10.0 mi Calm Calm - 0.01 in Rain Light Rain
6:58 PM 75.2 °F - 73.4 °F 94% 29.99 in 10.0 mi SSE 3.5 mph - 0.01 in Rain Light Rain
7:36 PM 75.2 °F - 73.4 °F 94% 30.00 in 10.0 mi South 3.5 mph - N/A   Clear
7:56 PM 75.2 °F - 73.4 °F 94% 30.00 in 10.0 mi Calm Calm - N/A   Clear
8:16 PM 73.4 °F - 73.4 °F 100% 30.01 in 10.0 mi Calm Calm - N/A   Clear
8:39 PM 75.2 °F - 73.4 °F 94% 30.00 in 10.0 mi SE 5.8 mph - N/A   Clear
8:56 PM 75.2 °F - 73.4 °F 94% 29.99 in 10.0 mi SSE 3.5 mph - N/A   Clear
9:36 PM 73.4 °F - 73.4 °F 100% 30.01 in 10.0 mi Calm Calm - N/A   Clear
9:56 PM 73.4 °F - 73.4 °F 100% 30.02 in 10.0 mi NNE 4.6 mph - N/A   Clear
10:16 PM 73.4 °F - 73.4 °F 100% 30.02 in 10.0 mi Calm Calm - N/A   Clear
10:36 PM 73.4 °F - 73.4 °F 100% 30.02 in 10.0 mi Calm Calm - N/A   Clear
10:56 PM 73.4 °F - 73.4 °F 100% 30.02 in 10.0 mi Calm Calm - N/A   Clear
11:16 PM 73.4 °F - 73.4 °F 100% 30.02 in 7.0 mi Calm Calm - N/A   Clear
11:36 PM 73.4 °F - 73.4 °F 100% 30.02 in 7.0 mi Calm Calm - N/A   Clear
11:56 PM 73.4 °F - 73.4 °F 100% 30.02 in 7.0 mi SSE 4.6 mph - N/A   Clear